Theta_e
334 334 333 332 332 330 329 330 331 333 335 335 334 333 333 333 333 333 332 331 331 331 331 331 331 331 331 331 331 331 330 329 328 328 328 327 327 327 326 327 327 327 327 326 326 326 326 325 325 325 325 324 324 324 323 322 322 321 321 320 320 321 322 322 322 322 322 322 322 322 322 321 321 321 321 321 322 321 319 318 319 320 320 319 318
334 333 333 332 332 331 331 331 331 332 334 335 334 333 332 333 333 333 332 332 332 332 332 332 332 332 332 331 331 331 331 331 330 329 328 328 328 327 327 327 327 328 327 327 327 326 326 326 325 325 325 325 325 325 324 324 323 323 323 323 323 322 322 323 322 322 322 323 323 323 323 323 323 323 323 322 322 322 322 321 322 321 321 321 320
334 333 333 333 332 332 332 331 332 334 334 333 332 333 332 332 333 333 332 332 332 333 333 332 332 332 332 332 331 331 331 332 331 330 330 329 329 328 328 328 328 328 328 328 327 327 326 326 326 325 325 325 325 325 324 324 324 323 324 324 324 323 323 323 322 323 323 323 322 323 323 323 324 324 324 323 322 322 321 321 322 322 322 322 321
334 334 333 333 333 333 332 331 333 335 334 332 332 333 333 333 333 332 333 333 333 333 333 332 332 332 332 331 331 331 331 331 331 331 330 330 330 330 328 328 328 328 328 328 328 327 326 326 326 325 325 325 326 326 325 324 324 324 324 324 324 324 324 323 322 322 323 323 323 323 323 322 323 323 323 323 323 323 323 322 323 323 323 322 322
334 334 334 333 333 334 334 334 334 334 333 333 333 333 333 333 333 333 333 333 333 333 332 332 332 331 331 331 331 331 331 331 330 330 330 330 330 330 329 329 329 328 328 328 328 328 327 327 327 326 325 325 326 327 326 325 325 325 325 324 325 325 325 324 324 323 323 323 323 323 322 322 322 322 323 323 323 324 324 324 323 324 323 323 323
334 334 334 334 334 334 334 334 334 334 334 334 333 332 333 333 333 333 332 332 332 332 332 331 331 331 330 330 330 331 331 330 329 329 330 330 330 329 329 328 328 328 328 328 328 328 328 328 328 327 327 326 326 327 327 326 326 326 326 325 325 325 325 324 324 324 324 324 324 323 323 323 323 323 323 323 324 324 324 324 324 324 324 324 324
334 335 334 334 334 334 334 334 334 333 333 333 333 333 333 333 333 333 332 332 332 331 331 331 330 330 330 330 329 330 330 329 329 329 330 329 329 328 328 327 327 327 328 328 328 327 327 327 327 327 327 327 327 327 327 326 326 326 326 325 325 325 325 325 325 325 325 325 324 324 324 324 324 323 324 323 324 324 324 324 324 324 324 324 324
334 334 334 334 334 334 333 334 333 333 333 333 333 333 333 332 332 332 332 332 331 331 330 330 329 329 329 329 329 329 329 328 328 328 328 328 328 327 326 326 325 326 326 327 327 327 327 327 327 326 327 327 327 326 326 325 325 325 324 324 324 324 325 325 325 325 325 325 325 325 324 324 324 324 324 324 324 323 324 324 324 324 324 324 324
334 333 333 333 333 333 333 332 332 332 332 332 332 332 331 331 331 331 331 330 330 330 328 328 327 326 326 327 327 326 326 326 325 325 324 325 325 324 325 325 325 324 325 325 326 327 327 326 327 326 326 326 326 325 324 323 322 323 323 323 323 322 323 324 324 325 325 325 325 325 325 324 324 324 324 324 323 323 324 324 324 324 324 324 323
333 332 332 331 331 330 330 330 330 331 330 330 330 330 329 328 328 328 328 327 327 328 326 326 325 324 324 325 322 319 320 319 318 318 318 318 318 318 319 322 323 323 323 324 325 325 325 325 325 325 324 323 322 321 319 317 318 320 321 322 322 322 322 322 323 323 324 324 324 324 324 324 324 323 323 323 323 323 324 323 323 322 322 321 321
330 330 329 329 328 328 327 327 328 328 328 328 327 327 326 325 325 325 325 324 324 325 324 323 323 322 322 319 315 313 312 312 312 311 310 309 309 308 311 317 321 322 321 321 322 322 323 323 323 322 322 320 319 317 315 314 315 316 317 318 318 318 319 321 322 322 322 322 323 323 323 322 323 323 322 323 323 322 323 323 322 320 318 317 317
327 327 327 326 325 324 324 324 324 325 325 325 324 324 323 323 322 321 319 318 318 317 317 317 317 316 314 310 308 307 305 304 304 304 303 303 302 302 306 310 314 315 315 317 319 319 319 319 319 319 319 318 317 315 313 313 314 313 314 315 314 313 313 314 316 318 319 319 320 321 321 320 321 321 321 321 321 321 321 319 317 316 315 315 315
323 323 323 323 323 323 323 323 323 322 322 322 322 321 320 319 318 318 316 315 314 313 311 309 309 310 311 308 305 303 302 301 301 301 301 301 300 301 302 304 306 309 310 311 312 313 313 313 314 317 318 318 316 311 309 311 311 311 312 315 315 313 311 309 307 309 313 315 316 317 318 319 319 319 319 319 319 318 315 313 314 316 316 315 315
320 320 319 320 320 320 320 320 320 320 320 320 319 318 317 317 316 316 315 315 315 314 312 310 308 309 312 313 311 307 303 300 300 300 300 300 300 301 303 307 312 315 312 306 307 311 311 309 312 314 314 313 310 304 302 304 307 310 314 315 315 315 313 309 305 304 305 308 311 313 314 315 315 315 314 313 312 310 308 308 311 313 314 315 314
319 318 318 318 318 318 318 318 317 317 317 317 317 317 317 317 317 317 315 314 315 315 315 315 313 311 311 312 312 310 305 301 300 300 300 300 299 301 307 314 317 318 315 309 307 310 308 304 309 314 312 306 302 302 301 300 303 309 315 316 314 315 314 312 309 306 304 302 304 306 306 307 309 308 307 306 305 304 303 303 302 304 308 311 311
319 318 318 319 318 318 317 318 317 317 317 316 317 316 315 314 315 317 316 315 316 316 316 317 316 315 314 312 309 308 305 302 301 301 300 300 299 302 311 317 317 317 316 313 310 310 308 303 305 309 308 303 300 301 301 300 302 307 313 315 314 313 313 313 312 311 308 303 301 301 301 301 302 303 303 302 302 301 300 300 302 307 310 312 312
319 319 319 319 318 318 318 317 317 317 317 317 317 316 315 313 313 316 316 317 318 316 315 316 315 315 317 315 312 311 308 305 304 304 303 302 300 302 310 316 316 315 314 313 312 313 312 308 306 305 306 305 304 304 304 302 301 303 309 313 314 314 313 313 314 313 312 309 305 303 303 302 301 301 301 301 300 300 300 299 304 311 314 313 312
318 318 318 317 317 317 318 318 317 317 317 317 317 318 318 316 316 316 317 318 319 315 314 315 314 314 316 316 315 315 313 309 309 309 307 307 305 304 306 309 311 313 313 311 312 312 312 311 310 310 310 311 310 309 308 305 301 301 303 306 309 312 314 314 314 313 313 311 308 305 304 304 304 302 301 301 300 300 300 299 301 307 310 310 311
315 315 316 316 315 315 316 317 317 317 317 317 317 318 318 316 316 316 316 317 317 315 313 315 315 315 316 316 315 315 314 312 312 311 310 311 310 308 307 305 306 309 311 311 311 311 310 311 311 312 312 312 311 310 309 306 303 302 302 301 303 307 310 312 313 313 313 312 310 306 304 304 304 303 302 302 302 302 302 301 299 300 302 305 309
313 313 313 313 313 313 313 313 314 314 313 313 314 315 315 315 314 314 315 315 315 314 314 315 315 315 315 314 314 314 314 313 313 312 312 312 311 309 308 306 304 305 307 307 308 309 309 310 311 311 312 311 310 309 309 308 306 304 303 303 302 302 304 306 308 310 311 311 310 307 304 304 305 305 305 307 307 307 306 305 303 301 300 301 305
313 313 313 313 313 313 313 312 313 313 311 311 312 313 313 313 313 313 313 314 313 313 313 314 314 314 314 313 313 313 313 313 313 312 312 313 310 308 307 307 306 305 305 305 305 306 308 310 311 312 312 311 310 309 308 307 306 304 304 304 303 302 302 302 303 304 305 306 306 304 304 307 309 309 309 309 309 309 309 308 307 306 303 300 301
313 313 313 313 314 314 314 314 314 314 313 313 313 313 313 313 313 313 313 313 313 313 313 313 313 313 313 313 313 312 313 313 313 313 314 313 310 308 309 309 308 307 308 307 306 307 308 309 309 310 310 309 308 308 306 305 305 304 304 304 304 303 302 302 302 303 303 303 303 303 304 308 310 310 310 310 310 309 310 309 308 308 307 304 302
314 314 314 314 314 314 314 314 315 314 314 314 314 314 314 314 313 313 314 313 313 313 314 313 313 313 313 313 313 313 312 312 312 312 313 313 310 309 310 310 310 309 309 308 307 307 307 308 308 308 308 307 307 307 306 306 306 306 306 306 306 305 304 302 302 302 303 304 304 304 303 304 305 307 308 309 309 309 309 309 309 309 308 308 306
315 315 315 315 315 314 314 315 315 314 314 314 315 314 314 314 314 314 313 314 314 313 314 313 312 312 312 311 311 311 312 311 311 311 311 311 311 311 311 311 311 310 309 308 307 308 307 308 307 307 307 307 307 308 308 307 307 307 306 306 307 308 307 306 304 303 303 303 304 305 305 305 305 306 307 308 308 309 308 309 310 309 309 308 307
316 315 315 314 314 313 313 314 314 313 313 314 314 314 314 313 313 313 313 313 313 312 311 310 309 309 308 307 308 309 310 310 310 310 310 310 309 309 309 309 309 309 308 308 308 307 308 308 308 308 308 308 308 308 308 307 307 306 306 306 307 308 308 307 306 306 305 305 305 306 307 307 308 308 308 308 308 308 308 308 308 308 308 308 307
313 313 312 312 312 312 311 312 312 312 312 312 312 312 312 312 311 312 312 312 311 310 308 307 307 305 304 305 307 308 307 307 307 307 306 305 304 303 303 303 303 303 303 303 303 303 304 304 304 305 304 304 304 303 304 304 304 305 305 305 307 308 307 307 307 307 307 307 308 308 308 308 308 308 307 307 308 308 308 308 307 308 308 308 308
311 310 309 310 310 308 308 309 310 310 310 309 310 310 309 309 309 310 310 309 308 307 306 305 303 302 302 303 304 303 303 302 301 300 299 298 298 297 297 297 297 298 298 298 298 298 298 298 298 298 299 300 301 302 302 303 304 304 305 306 306 307 307 307 307 307 307 307 307 307 307 307 307 307 307 306 307 307 307 306 307 307 308 307 307
309 309 309 308 305 303 304 307 307 308 308 307 307 307 306 306 308 308 306 305 305 304 304 303 302 302 302 302 302 301 300 299 298 297 297 297 297 296 297 297 297 297 297 297 297 297 298 298 299 300 302 303 304 304 304 304 305 305 305 305 305 305 306 306 306 306 306 306 305 305 305 305 305 305 305 305 306 306 306 305 305 305 306 306 305
309 308 305 302 301 302 305 307 307 306 307 306 305 305 304 305 307 306 304 304 304 303 303 303 303 302 302 301 300 299 299 299 299 299 299 299 299 299 299 300 300 300 299 299 300 300 301 303 303 304 304 304 304 304 304 304 304 304 304 304 304 304 305 305 305 305 305 305 305 304 304 304 304 304 304 304 304 304 304 304 304 304 305 306 306
306 303 300 300 303 305 307 307 306 305 305 305 305 305 306 307 307 305 304 304 303 303 303 302 301 301 300 299 299 300 300 300 300 301 301 301 301 302 302 302 302 302 302 302 303 303 303 304 304 304 303 303 304 304 304 304 304 303 303 304 303 303 304 304 304 304 304 303 303 303 303 302 302 302 302 302 302 302 303 303 303 304 305 305 305
300 298 299 303 306 306 306 305 305 305 305 306 306 306 306 306 305 304 304 304 303 302 301 301 300 299 299 299 299 300 300 300 301 301 302 302 303 303 303 303 303 303 303 303 303 303 303 303 303 303 303 303 303 303 303 303 303 302 302 302 303 303 303 303 303 302 302 302 302 301 301 301 302 302 302 302 302 301 301 302 303 303 303 303 303
298 297 302 306 306 305 305 304 304 305 305 305 305 305 305 304 304 304 303 303 303 302 300 300 299 299 299 299 299 299 299 299 300 301 302 302 302 303 303 302 302 302 303 303 303 303 303 303 303 303 302 302 302 302 302 301 301 301 301 301 301 301 302 302 302 302 301 301 301 301 301 301 301 301 301 301 301 301 301 301 301 302 302 302 302
299 297 302 306 305 304 303 303 304 304 304 304 303 303 303 303 303 303 302 303 303 302 300 300 299 299 299 299 299 299 299 299 299 300 300 301 301 302 302 302 301 301 302 302 302 302 302 301 301 301 301 301 301 301 300 299 299 299 300 300 300 299 300 300 301 301 301 301 300 300 300 300 300 300 300 300 300 300 300 301 301 301 301 301 301
301 300 303 305 305 304 303 303 303 303 303 302 302 302 302 302 302 302 301 302 303 302 301 300 299 298 299 299 299 299 299 299 298 299 299 300 300 301 301 301 301 301 301 301 301 301 301 300 300 300 300 300 300 300 300 299 298 298 298 299 299 298 298 299 299 299 299 299 298 298 298 298 299 299 299 299 299 299 299 299 300 300 301 301 301
301 302 304 304 304 303 303 302 302 302 302 302 302 301 301 302 302 301 301 301 301 301 300 300 298 297 299 299 299 299 299 298 298 298 298 298 299 299 300 300 300 300 300 300 300 300 300 300 299 299 299 298 298 298 298 298 298 298 298 298 298 298 298 298 298 298 297 297 297 297 297 297 297 298 298 299 298 298 298 298 298 299 299 299 299
297 299 302 303 303 303 302 301 301 301 301 301 301 301 301 301 301 301 301 300 301 300 300 299 297 295 297 299 298 298 299 298 298 298 298 297 298 298 298 298 299 299 299 299 299 299 299 299 299 298 298 297 297 297 297 297 297 297 297 297 297 297 297 297 297 297 297 297 296 296 296 296 296 296 297 297 297 298 297 297 297 297 298 298 298
299 298 299 301 302 302 301 301 301 300 301 301 300 300 301 300 301 301 300 300 300 300 300 300 297 293 294 297 298 297 298 298 297 297 297 297 297 297 297 297 297 297 297 297 298 298 298 298 298 297 297 296 295 295 296 295 295 295 295 295 296 296 296 296 297 296 296 297 297 296 296 296 295 295 295 296 296 296 296 296 296 296 296 297 297
302 300 299 300 301 301 300 300 300 300 300 300 300 300 300 300 300 300 299 299 299 299 298 299 298 293 291 294 296 296 296 296 296 296 296 296 296 296 296 296 296 296 295 295 296 296 297 297 297 296 295 295 294 295 295 294 294 294 293 292 292 293 294 294 295 296 296 296 297 296 296 296 296 295 295 295 295 295 295 295 295 295 295 295 296
302 301 299 299 300 300 300 299 299 299 299 299 299 298 298 298 298 298 298 298 298 298 297 298 297 294 292 293 295 295 295 294 295 295 295 295 294 294 295 295 295 295 295 295 294 295 295 295 295 295 295 295 295 295 295 294 294 294 293 291 289 290 291 292 292 293 294 295 295 295 296 296 296 295 295 295 295 295 295 295 295 295 295 295 295
302 301 299 299 299 300 299 298 298 298 298 297 297 297 297 296 296 296 296 296 296 296 296 296 296 295 293 292 293 294 294 293 294 294 294 294 294 293 293 293 294 295 295 294 294 294 294 294 294 294 294 294 294 294 294 294 293 294 293 291 289 288 289 289 290 290 291 292 293 294 294 295 295 295 295 295 295 295 295 295 295 295 295 295 295
301 301 300 299 299 299 299 298 297 296 296 295 295 295 295 295 295 295 295 295 295 295 295 294 294 294 293 292 292 294 294 293 293 293 293 293 293 293 292 291 292 293 294 293 293 292 292 293 293 293 293 294 293 292 293 294 293 293 293 291 289 287 286 286 286 287 288 288 290 291 292 293 294 294 294 294 295 295 295 295 295 295 295 295 294
300 300 299 299 298 298 297 297 296 296 295 295 294 295 294 294 295 294 294 295 294 294 294 294 293 293 293 292 292 292 293 292 292 292 292 291 291 291 291 290 289 291 292 292 291 290 290 291 292 291 291 292 292 291 292 293 293 292 292 290 288 287 285 285 285 285 285 286 286 287 288 289 290 292 293 294 294 294 294 295 295 295 295 295 295
300 299 298 298 297 297 296 296 295 295 295 295 294 294 294 294 294 294 294 294 294 294 294 294 293 293 292 292 291 291 291 292 291 291 291 291 290 291 290 289 288 289 290 290 290 289 288 289 290 289 289 290 290 289 290 292 292 291 291 289 288 286 285 285 285 285 285 285 285 285 285 286 286 287 289 290 291 293 293 294 294 294 295 295 295
299 299 298 297 297 296 296 295 295 294 294 295 295 294 294 294 294 294 293 293 293 293 293 293 293 292 292 292 291 291 291 291 291 290 291 290 290 290 290 288 287 287 288 289 289 288 288 288 288 287 287 288 287 287 288 290 291 290 290 288 287 286 285 284 285 285 285 285 285 285 285 285 285 285 286 286 287 288 290 292 293 293 294 294 294
298 298 298 297 297 296 295 295 295 295 294 294 295 294 294 294 294 294 293 293 293 293 293 293 293 292 292 292 291 291 290 290 290 290 290 290 290 290 288 287 287 287 287 287 288 288 287 287 287 286 286 287 287 286 287 288 289 289 288 287 286 286 285 284 284 284 285 285 285 285 285 285 285 285 285 285 285 285 285 287 288 290 291 292 293
298 298 297 297 297 296 295 294 294 294 294 294 294 294 294 294 293 293 293 293 292 293 293 293 292 292 292 291 291 291 290 290 290 290 290 290 290 289 288 287 286 286 286 286 287 286 286 286 286 286 286 286 286 286 287 287 288 287 287 286 286 285 284 284 284 284 284 284 285 285 285 285 285 285 285 285 285 285 284 284 284 286 287 289 290
298 298 297 297 296 296 296 295 294 294 294 294 294 293 293 293 293 293 293 292 293 293 292 292 292 292 291 291 291 291 290 290 290 290 289 289 289 289 287 286 286 286 286 286 286 286 286 286 285 285 286 285 285 286 287 287 287 286 286 285 285 284 284 284 284 284 284 284 284 284 285 285 285 285 285 285 285 285 284 283 284 285 288 289 290
298 297 297 297 296 295 295 295 294 294 294 294 294 293 293 293 293 293 292 292 293 293 292 292 292 292 291 291 291 290 290 290 289 289 289 289 289 288 287 286 286 286 286 286 286 286 286 286 286 285 285 285 285 286 287 287 286 286 285 285 284 284 283 283 284 284 284 284 284 284 284 285 285 285 285 284 284 284 284 284 285 286 288 289 289
298 297 297 296 296 295 295 295 294 294 294 293 293 293 293 292 292 293 292 292 292 292 292 292 291 291 291 291 290 290 290 289 289 288 288 288 287 287 286 286 286 286 287 287 287 286 286 286 286 286 285 285 285 286 287 287 286 285 285 284 284 283 283 283 283 284 284 284 284 284 284 285 285 285 284 284 284 284 283 284 284 285 286 287 287
297 297 296 296 296 295 295 294 294 294 294 293 293 293 293 292 292 292 292 292 292 291 292 291 291 291 291 290 290 290 290 289 288 287 287 287 286 286 287 286 286 286 287 287 287 286 287 287 286 286 286 285 285 286 286 286 286 285 284 284 284 283 283 283 283 283 283 284 284 284 285 285 284 284 284 284 283 283 283 283 284 284 284 285 285
297 297 296 296 296 295 295 294 294 293 293 293 292 292 292 292 292 292 292 292 291 291 291 291 291 290 290 290 289 289 289 288 287 287 286 286 286 286 286 286 286 287 287 287 287 287 287 287 287 287 286 285 285 286 286 286 285 284 284 284 283 283 283 283 283 283 283 283 284 284 284 284 284 284 284 283 283 283 283 283 284 284 284 284 285
Wind_Speed
16 17 17 18 19 19 19 17 17 16 13 11 11 11 10 11 13 12 11 11 12 12 12 12 11 10 11 11 11 11 11 11 11 11 13 14 14 14 14 14 14 15 15 16 16 15 14 15 14 13 13 13 12 13 13 12 11 12 13 14 14 15 15 14 15 18 18 17 17 16 14 14 15 17 19 19 15 13 15 16 15 13 14 17 19
15 16 16 16 16 17 17 16 17 15 12 10 10 12 13 13 14 12 10 10 11 11 11 12 11 10 10 12 13 13 12 10 11 13 15 15 15 16 15 14 16 17 17 18 19 17 16 16 17 17 17 16 15 16 15 13 14 13 13 14 15 16 17 18 16 16 18 18 17 16 15 15 16 16 17 18 18 17 18 19 20 18 15 16 19
13 14 14 14 15 15 14 15 16 13 12 12 13 14 14 13 12 10 9 9 8 7 8 8 8 8 8 9 10 11 11 10 10 12 14 14 14 16 17 17 17 18 18 19 19 18 18 19 20 19 19 19 19 20 19 19 20 19 18 18 19 20 21 21 19 19 21 22 20 18 18 18 18 17 18 18 18 19 21 21 20 18 17 18 17
12 12 12 13 14 14 14 15 15 13 13 14 14 13 13 12 10 8 7 7 6 5 5 4 5 6 5 6 6 7 8 9 10 11 11 10 10 12 15 18 18 19 19 20 20 19 19 20 20 20 19 20 20 19 19 22 23 23 22 24 25 25 24 22 20 21 24 25 24 23 22 21 21 21 21 22 22 22 21 18 17 15 15 16 15
9 10 11 11 12 13 13 13 13 11 10 11 9 8 8 8 7 6 4 4 4 4 4 2 3 4 3 4 5 5 6 8 8 8 8 8 8 8 11 14 15 16 18 18 18 16 15 15 16 16 17 19 20 20 20 21 23 23 22 24 25 26 26 23 22 24 26 27 29 28 25 25 26 25 24 23 24 23 18 17 18 15 14 15 15
7 8 9 9 9 10 10 9 8 6 5 5 5 5 4 3 3 3 2 1 2 2 2 1 2 2 2 4 5 5 6 6 6 7 8 9 9 8 10 12 12 12 13 14 14 15 15 15 15 14 15 18 18 18 19 19 20 21 20 20 20 22 24 24 24 26 27 27 29 29 28 26 26 25 24 23 23 21 18 17 17 16 15 15 15
7 8 9 8 8 7 6 5 4 4 4 5 5 5 4 3 1 1 1 1 2 2 2 3 2 1 1 3 5 5 5 5 6 8 9 10 10 10 11 12 12 12 12 11 11 12 13 14 14 14 14 15 14 14 16 16 16 17 17 15 15 16 18 18 20 22 24 24 23 24 24 22 22 22 22 22 21 18 16 16 16 16 16 16 16
9 11 11 10 10 9 8 7 6 6 6 5 5 5 5 4 3 2 2 3 4 3 4 5 5 3 3 4 4 6 7 8 9 10 10 12 12 11 11 11 11 12 13 12 11 11 12 12 11 11 11 12 13 15 16 17 16 16 16 15 16 16 16 16 16 16 18 19 19 19 20 20 21 21 18 18 18 17 16 16 17 17 16 16 15
13 14 13 11 11 10 8 8 7 7 6 5 5 5 4 4 3 2 3 4 4 4 5 6 7 7 6 7 6 7 8 9 9 9 9 10 10 11 11 10 10 11 13 12 10 10 11 11 11 10 11 14 15 16 17 19 20 19 19 18 18 19 19 18 17 16 15 16 17 17 18 18 18 16 14 12 13 15 15 15 15 15 15 15 13
13 14 14 13 11 8 7 8 7 6 6 6 6 5 4 4 2 1 2 2 2 4 5 5 5 3 5 7 8 8 8 8 9 9 8 8 8 8 8 6 6 8 10 9 7 9 10 10 11 11 13 14 15 17 19 20 20 20 21 20 19 19 20 19 18 17 15 15 15 14 15 15 14 12 12 12 12 14 14 12 13 14 15 15 13
14 14 15 13 11 8 8 7 6 5 5 6 7 8 8 8 6 5 4 2 1 3 4 3 2 1 4 8 10 11 11 10 10 10 9 9 8 8 6 3 3 5 8 7 5 6 8 10 11 11 13 15 17 20 21 17 15 15 15 16 17 18 19 19 20 19 18 17 16 14 12 12 11 10 10 12 14 14 14 14 15 15 15 13 11
15 15 14 13 13 13 12 11 10 9 8 9 10 11 10 10 10 8 7 7 8 7 6 6 6 5 8 11 12 11 12 12 11 11 10 9 8 7 5 4 4 6 8 6 5 7 10 11 9 8 11 15 17 18 17 12 10 10 9 10 13 14 14 16 18 20 20 20 20 17 13 11 10 10 10 12 15 16 18 18 16 14 13 12 11
15 15 14 14 14 13 13 13 13 13 13 12 11 11 11 11 11 11 11 12 12 12 11 11 10 9 10 13 14 14 13 13 13 12 12 11 10 9 6 5 7 7 7 7 6 8 10 9 6 4 7 13 15 13 11 10 10 9 7 9 13 14 14 14 12 12 13 15 15 14 13 14 15 15 16 18 20 20 19 16 12 11 11 12 12
15 15 14 14 13 12 12 12 12 12 11 10 11 11 12 12 12 12 12 12 12 12 13 13 13 12 11 12 14 16 17 16 16 15 14 13 13 10 8 9 10 10 11 12 10 9 10 9 5 5 8 10 12 12 10 10 10 9 8 11 14 16 19 18 14 12 11 10 10 11 12 15 18 19 19 19 19 18 15 12 12 13 15 16 17
16 16 16 15 14 14 14 13 13 13 11 11 12 13 13 12 12 12 12 13 13 12 12 13 14 13 13 12 13 16 18 18 17 16 15 14 13 11 10 11 10 10 14 16 13 10 11 10 7 7 9 9 10 11 11 11 9 7 8 12 13 14 18 19 17 16 15 12 10 10 11 12 15 16 16 15 14 14 12 11 11 11 12 14 16
16 16 16 15 15 15 14 14 14 14 13 13 13 13 12 12 12 11 11 14 15 14 13 13 13 14 14 14 14 16 17 17 17 17 16 14 13 11 9 9 8 11 14 16 15 14 15 14 10 8 11 13 13 13 14 13 10 6 6 9 11 13 16 18 18 19 18 15 12 11 11 11 11 13 13 13 13 13 13 12 8 6 8 10 11
16 16 16 15 15 14 14 14 14 13 13 13 12 13 13 13 13 12 11 13 16 15 13 12 13 13 14 14 16 18 17 17 19 20 18 17 15 11 6 7 7 10 13 15 16 17 17 17 14 13 15 17 16 16 18 17 13 9 8 8 9 12 15 15 15 18 19 18 17 13 11 12 12 12 13 13 14 13 13 11 6 5 8 11 11
16 15 15 14 14 14 13 14 13 13 13 12 13 13 13 14 14 13 13 13 12 11 10 10 11 11 11 14 17 19 18 19 21 21 20 20 19 15 10 6 6 9 12 13 15 17 18 19 19 17 16 15 15 17 19 19 18 15 13 12 10 11 13 11 10 14 18 20 20 17 14 14 13 13 13 13 13 13 13 11 8 9 10 10 11
15 15 14 14 13 13 13 13 12 13 13 12 13 13 12 13 14 13 14 13 10 10 11 11 11 11 12 13 16 18 18 20 21 20 20 20 20 19 17 13 9 8 10 10 10 13 18 21 20 18 16 15 16 18 20 20 20 19 18 17 15 14 15 12 10 12 16 19 21 21 20 18 16 14 13 13 13 13 12 11 9 11 13 13 12
15 14 14 13 13 13 13 14 13 13 13 13 12 12 12 13 14 13 13 12 11 12 14 13 12 13 13 13 15 16 18 19 21 21 20 19 19 18 18 17 14 12 12 10 9 10 14 18 19 17 16 18 19 21 22 22 22 22 20 20 19 18 18 18 17 17 18 21 23 23 21 18 17 16 14 13 13 13 12 12 10 11 12 13 13
14 14 14 14 14 15 16 17 15 15 16 16 14 13 13 13 14 12 12 13 14 15 16 15 14 14 15 16 17 18 17 18 19 20 19 17 16 15 15 15 14 14 14 13 13 11 12 16 19 18 18 19 21 23 24 25 25 25 24 22 22 21 21 21 22 22 22 23 24 23 21 19 20 20 19 18 18 17 16 14 14 14 14 14 13
14 15 15 16 16 16 16 17 16 16 17 17 16 14 14 15 16 15 13 15 16 16 17 17 15 16 17 17 17 18 17 14 14 15 15 13 12 12 12 11 12 13 13 14 14 13 12 14 18 19 19 21 23 24 26 27 27 27 26 25 24 23 23 24 24 24 25 25 25 24 21 20 21 22 23 24 24 22 20 18 18 19 18 17 17
16 16 16 17 16 15 14 15 14 14 15 15 15 14 14 15 17 16 14 15 15 14 14 15 15 16 16 15 16 18 20 17 12 9 8 8 8 8 10 11 12 14 15 15 15 14 14 15 18 20 22 23 24 25 26 27 27 27 27 27 26 26 26 26 26 26 27 27 27 27 25 24 23 23 23 23 22 22 21 19 19 20 21 22 22
15 14 14 14 13 13 14 14 12 12 14 15 14 15 15 16 16 15 14 14 12 10 11 13 15 16 17 17 18 19 21 20 14 9 7 8 9 11 13 14 15 16 16 17 18 19 20 22 24 25 26 26 26 26 26 27 27 28 29 29 28 26 26 28 28 28 28 29 29 29 28 26 25 23 23 23 23 23 25 22 20 20 22 24 24
12 12 11 10 9 10 12 13 12 13 14 15 15 15 16 16 16 13 12 11 11 11 12 14 15 16 18 20 18 17 17 18 15 11 11 11 12 14 15 16 16 18 19 20 22 23 24 25 26 27 27 28 29 29 29 29 30 31 32 32 30 28 26 26 27 27 26 27 27 28 27 26 24 24 25 24 25 27 27 25 24 24 27 29 29
12 13 12 10 9 10 11 11 12 14 13 13 15 15 15 15 15 12 10 10 13 15 16 16 18 19 19 18 14 12 14 18 19 18 18 19 20 20 21 20 20 21 22 22 23 23 23 24 25 26 27 28 29 29 30 29 29 29 29 29 29 28 26 26 26 25 24 23 23 24 24 22 21 21 22 22 24 26 25 23 22 23 25 28 28
12 11 9 9 11 14 13 12 12 13 12 12 13 14 13 15 15 13 11 12 14 16 18 19 20 20 17 15 15 16 17 20 23 23 23 24 24 23 23 24 24 24 24 24 24 23 23 23 23 23 24 24 24 24 25 25 24 24 24 25 26 26 26 25 24 24 25 24 24 24 24 22 21 23 25 25 25 25 25 25 26 28 28 27 25
10 8 8 11 14 15 15 13 12 12 12 11 11 13 14 13 12 12 14 16 16 17 18 19 19 17 16 17 20 20 20 21 22 22 22 23 23 23 23 23 23 23 23 23 22 21 20 19 19 21 22 22 22 22 22 23 23 23 23 24 25 25 24 24 23 23 24 24 23 25 26 26 26 29 31 32 31 30 29 29 31 35 34 28 24
9 10 12 14 15 15 14 12 12 12 12 11 12 14 14 10 10 14 17 17 16 16 16 17 17 16 17 18 20 21 21 21 21 20 20 20 21 21 21 20 20 20 19 19 19 18 17 18 20 21 21 21 20 19 19 19 19 18 19 20 21 21 21 20 20 20 19 17 18 21 23 24 25 27 29 31 34 35 35 33 33 34 30 25 24
10 12 14 15 15 15 13 12 11 13 13 12 13 13 11 9 11 15 16 15 15 16 17 18 18 17 16 17 18 19 20 20 18 18 18 18 19 19 19 19 18 17 16 15 15 15 17 19 19 18 19 19 19 19 20 19 19 18 17 18 19 20 19 18 18 17 16 16 16 19 21 22 23 23 24 25 26 28 28 29 28 25 20 18 19
12 13 14 15 15 14 13 12 13 14 14 13 12 11 10 11 12 14 14 14 16 18 21 21 18 16 17 18 18 18 18 17 16 16 16 17 17 17 16 16 16 16 16 15 16 18 20 20 19 19 20 20 21 21 21 21 22 22 21 19 20 20 20 19 19 21 22 21 19 19 21 22 21 21 21 20 19 18 16 16 17 16 13 15 17
14 14 15 15 14 12 13 14 15 14 14 13 12 11 10 10 10 11 13 14 14 18 23 22 17 16 17 19 18 18 19 19 18 16 15 15 17 18 17 17 17 18 19 20 21 22 23 23 23 22 22 22 22 22 22 23 24 24 24 23 22 21 20 18 17 18 19 19 19 20 23 23 21 20 20 19 18 17 14 11 9 7 10 15 17
15 15 15 14 13 13 15 16 15 15 14 13 13 12 10 9 9 11 12 12 11 15 22 22 18 16 16 16 17 19 20 21 21 18 16 15 16 19 20 19 20 21 22 23 23 23 23 23 23 23 23 23 24 24 24 25 24 23 22 23 23 22 21 17 15 15 16 17 20 23 25 25 23 20 19 19 19 19 18 16 12 10 9 11 12
14 14 15 14 13 14 15 14 14 14 13 11 12 11 11 10 10 10 10 10 10 13 17 20 19 15 14 14 17 19 20 22 23 21 19 17 18 19 20 20 21 22 23 23 22 22 22 22 21 21 21 21 21 21 21 22 23 22 21 21 22 23 23 20 19 19 20 21 23 24 25 25 24 21 19 17 17 19 20 19 16 14 13 10 8
13 13 13 14 13 13 13 13 13 13 12 11 12 12 11 10 10 10 10 10 11 12 13 16 18 16 13 13 15 16 18 21 23 22 20 19 18 19 19 20 22 23 23 23 22 21 21 21 20 19 20 20 19 20 20 21 22 22 22 22 22 23 24 24 23 23 22 23 24 24 24 25 24 22 20 18 16 15 17 17 16 15 14 12 11
16 13 12 12 12 12 12 12 12 11 11 11 10 10 10 10 10 10 10 9 10 12 12 13 17 16 13 12 14 16 16 18 19 19 20 19 19 20 21 21 21 21 21 22 21 20 20 20 19 20 21 21 20 20 19 19 19 20 21 21 20 22 24 23 23 23 23 22 23 23 23 24 24 23 23 22 19 18 18 18 17 16 15 14 13
19 16 13 13 12 11 11 11 11 12 11 11 10 10 11 11 10 10 10 10 10 11 11 12 17 19 15 13 14 16 16 15 16 16 18 19 19 19 20 20 20 19 20 20 20 20 19 19 19 19 20 21 21 21 20 20 19 20 20 20 19 20 22 22 22 22 22 22 22 22 21 22 22 22 23 23 22 22 21 20 19 19 17 15 14
18 17 14 13 12 10 10 10 11 11 11 11 11 11 11 11 10 10 11 11 11 11 11 12 16 20 18 14 14 16 16 15 16 17 18 19 19 19 19 19 19 19 19 19 19 19 19 19 20 20 20 21 22 21 21 21 21 21 21 22 22 22 23 23 23 23 23 22 23 23 22 22 21 21 21 22 23 23 23 22 22 22 21 20 19
14 15 14 12 11 10 10 10 10 10 11 11 11 11 11 11 11 11 11 11 11 11 12 11 14 19 19 15 14 16 17 16 17 18 18 18 18 18 18 18 18 18 19 19 19 18 18 18 19 19 20 21 21 21 22 22 21 20 20 22 24 25 24 25 25 25 24 24 24 23 23 23 22 22 21 21 22 23 23 23 23 23 23 22 21
9 12 13 13 11 10 10 10 10 10 10 10 10 11 10 11 11 10 10 11 10 11 11 10 12 17 19 15 13 15 16 16 16 17 17 17 17 17 17 17 17 17 18 18 18 18 17 17 17 18 19 19 20 20 21 21 22 20 19 21 25 26 25 25 25 25 25 25 25 25 25 24 23 22 22 21 21 21 21 21 21 22 23 23 22
8 9 10 11 10 9 9 9 9 10 10 10 10 10 10 10 10 10 10 10 10 10 10 10 10 14 17 16 13 13 14 15 15 15 15 16 16 16 16 16 15 15 16 17 17 17 17 16 16 17 17 17 18 19 18 19 20 19 18 22 26 27 27 27 27 26 26 25 25 25 26 26 25 24 24 24 23 22 21 20 20 20 20 21 22
8 8 8 8 8 8 7 7 8 8 8 9 9 9 9 9 9 9 9 9 9 9 9 9 9 11 15 16 14 13 13 14 14 15 15 15 15 15 15 16 14 13 14 15 16 16 16 15 15 16 16 16 18 18 17 18 18 18 21 24 26 28 30 31 30 29 29 29 28 27 27 27 27 26 26 26 25 25 25 23 21 21 21 19 19
7 8 7 6 6 7 7 6 6 6 6 7 7 8 8 8 8 9 9 8 8 8 8 9 9 9 11 13 14 13 12 13 14 14 14 14 14 14 15 16 15 13 13 13 15 16 16 15 15 16 16 16 17 17 16 17 18 20 23 26 28 30 33 34 33 32 32 32 32 31 30 29 29 28 28 28 27 27 27 26 25 25 25 23 21
7 7 7 6 5 6 6 5 5 6 6 6 6 6 7 7 7 8 8 8 8 8 8 8 9 10 10 11 12 13 13 12 13 13 13 13 14 13 14 16 15 13 12 12 13 15 16 15 15 16 16 16 17 17 16 15 17 20 24 27 29 31 34 35 34 34 33 33 33 33 33 32 31 30 30 30 29 29 29 28 28 28 28 27 26
8 6 6 6 5 5 5 5 4 5 5 5 5 5 6 6 6 7 7 8 9 8 8 8 9 9 10 11 12 12 12 12 12 12 12 12 13 13 15 16 15 13 13 12 12 13 15 15 16 17 17 17 18 18 16 14 16 20 24 26 29 32 34 35 34 34 33 33 32 33 33 33 32 32 31 31 31 30 30 30 30 30 30 30 30
9 7 6 6 6 5 5 4 4 4 4 3 4 5 5 5 6 6 7 8 8 8 8 8 9 9 10 10 11 12 12 12 12 12 12 11 12 13 16 16 15 14 14 13 13 14 16 16 17 18 17 17 19 18 15 13 17 21 24 27 29 32 33 34 34 33 33 33 32 32 32 32 32 32 31 31 30 30 30 30 30 31 30 30 31
8 8 6 6 6 6 5 4 5 5 4 3 4 4 5 5 6 6 7 8 8 8 8 8 8 9 9 10 10 11 11 11 11 11 11 11 11 13 15 15 15 15 15 14 15 16 17 17 18 18 18 18 19 17 15 17 20 23 25 27 29 31 32 33 33 34 34 34 33 32 31 32 31 31 31 30 29 29 27 26 27 28 29 30 31
9 8 7 6 6 6 6 5 5 5 4 4 4 5 5 5 6 6 6 7 7 7 8 8 8 9 9 9 10 10 10 11 12 11 10 10 11 12 14 15 15 15 15 15 16 18 18 18 19 19 19 19 18 17 18 22 23 25 27 29 31 32 33 33 34 35 35 35 34 33 32 32 32 31 30 29 28 27 25 24 24 26 28 30 30
9 7 8 8 7 7 7 6 6 6 5 4 5 5 5 5 6 6 6 7 7 7 8 8 8 9 9 9 10 10 10 11 12 11 10 11 11 12 13 15 15 15 16 17 18 18 19 19 19 19 20 20 18 16 20 24 25 27 30 32 33 34 34 34 35 36 36 35 34 33 33 33 33 32 30 28 27 25 24 23 24 25 27 28 29
10 8 8 9 8 8 7 7 6 6 6 5 5 6 6 6 6 6 6 7 7 7 8 8 8 9 9 9 10 10 10 12 12 12 11 12 12 12 14 15 14 15 16 17 18 18 19 19 20 20 20 21 18 17 21 25 27 29 32 35 35 35 36 37 38 38 38 37 37 35 33 33 32 31 29 28 26 24 24 24 24 25 26 27 28
10 8 9 9 9 8 9 8 7 6 6 6 6 6 7 6 6 6 7 7 7 8 8 8 8 9 9 10 10 10 11 12 13 13 13 12 12 13 14 14 14 16 17 17 18 18 19 20 21 21 21 22 20 18 22 27 29 31 34 37 37 38 39 40 41 41 40 39 38 35 33 32 31 29 28 27 24 23 23 24 23 22 22 23 25
Wind_Direction
224 227 224 220 221 224 226 226 224 224 221 212 211 213 212 219 221 216 221 234 239 240 245 248 245 249 259 259 256 255 253 250 245 244 249 253 255 257 260 264 264 263 262 262 262 260 261 270 272 270 274 274 276 281 285 289 279 268 273 272 265 265 265 262 265 273 278 282 283 280 278 272 255 251 258 253 252 263 252 241 248 263 274 275 277
215 218 218 219 220 222 225 228 229 230 225 217 220 225 226 232 237 237 246 253 250 248 250 254 256 260 260 255 253 255 259 262 252 244 246 250 253 256 259 265 265 263 263 262 263 264 261 261 261 260 260 259 259 261 260 260 261 264 268 266 260 257 260 262 262 270 276 273 277 282 277 270 262 260 263 259 262 271 266 260 258 254 259 266 268
210 214 216 215 213 213 216 223 229 228 223 223 231 241 244 245 245 247 254 257 254 251 251 254 261 268 267 262 260 258 258 263 260 255 259 262 263 262 257 257 261 261 262 265 267 265 260 258 260 261 265 269 267 262 257 254 253 254 256 261 262 258 257 260 261 268 272 266 263 267 269 270 270 269 269 270 279 287 282 275 267 261 263 260 255
201 206 208 204 205 210 211 219 226 220 217 227 237 247 250 244 237 233 238 247 253 262 261 263 275 279 280 279 280 275 270 274 276 273 274 278 281 277 263 255 258 260 262 269 275 270 262 262 267 268 269 275 279 274 267 265 264 264 263 262 263 263 263 264 261 262 267 267 265 265 267 272 275 275 275 278 286 291 286 275 268 271 278 272 263
191 194 200 197 200 208 207 215 225 221 220 227 229 233 235 233 229 229 244 247 239 254 266 284 294 280 268 275 286 292 285 281 280 278 279 282 284 285 278 271 273 270 263 268 282 285 277 274 277 273 262 262 269 273 274 274 273 274 273 267 265 267 268 264 258 258 262 266 269 270 270 273 277 278 277 280 287 289 283 274 270 270 270 269 267
174 177 186 185 188 197 197 202 212 206 199 196 186 186 192 200 209 210 240 264 207 227 254 303 304 281 272 278 272 279 289 281 274 277 276 276 282 294 301 302 300 290 274 273 283 286 283 281 281 275 265 265 269 272 275 277 275 276 278 277 275 275 273 267 260 259 263 267 269 271 272 274 276 275 274 279 285 285 278 273 270 263 259 260 261
157 158 156 149 143 145 146 149 156 144 126 123 129 134 139 140 127 143 135 67 90 108 81 63 50 65 311 284 265 269 290 284 276 284 284 283 293 303 305 307 309 305 298 299 299 293 291 290 283 276 273 275 277 278 281 284 283 283 286 288 289 288 285 279 272 267 268 271 271 271 272 275 276 276 276 278 280 277 271 268 265 259 258 259 259
116 119 122 117 109 106 107 107 103 100 99 102 107 109 116 114 87 78 84 81 89 90 63 50 38 10 319 296 286 282 288 286 282 286 285 285 291 294 294 302 315 313 306 308 309 301 297 296 288 281 281 284 285 287 287 287 287 287 288 288 289 291 292 290 286 279 273 272 272 271 273 276 280 281 280 277 276 270 262 261 265 265 262 261 264
97 100 102 99 96 100 108 106 96 94 98 97 95 94 89 87 86 92 87 86 97 89 67 62 52 20 331 309 313 309 302 302 304 305 301 295 293 292 290 290 298 305 303 301 308 311 306 300 294 288 287 287 287 289 291 291 288 285 283 282 283 284 284 285 286 286 283 278 276 277 278 279 281 285 284 278 273 265 259 260 264 264 259 255 256
88 89 88 83 83 90 98 100 95 92 87 77 73 69 51 32 16 31 71 78 114 108 97 103 104 72 318 317 342 351 346 345 346 345 341 333 327 320 310 289 282 310 314 301 309 332 325 307 299 297 295 294 294 296 299 298 292 284 279 278 277 276 277 278 279 282 284 284 283 288 290 288 289 292 284 270 259 253 251 251 251 255 259 259 259
76 76 76 73 67 61 62 68 74 77 65 53 51 46 39 41 50 60 65 60 78 112 113 111 117 140 313 338 2 5 2 3 359 355 354 349 343 340 337 309 264 302 310 302 311 325 307 295 302 312 313 309 306 305 306 306 298 289 286 286 285 282 278 274 272 272 275 279 281 288 302 306 302 294 275 257 251 249 247 250 257 265 271 269 263
76 74 72 68 60 58 61 62 63 63 56 55 60 61 61 65 69 65 58 57 60 65 69 61 53 27 357 5 18 14 11 15 11 7 8 6 1 358 349 319 292 291 294 297 296 285 279 281 293 317 321 313 307 309 311 311 306 306 314 325 325 316 299 286 279 275 274 275 275 276 287 297 289 277 270 263 262 265 267 268 271 274 278 277 267
75 75 76 74 70 72 76 75 74 71 69 72 77 78 77 73 69 63 56 55 54 50 47 48 49 36 13 13 24 27 23 20 18 18 15 13 16 15 360 342 341 334 327 325 310 296 298 297 286 291 303 300 304 318 325 318 314 321 339 349 345 336 324 318 314 302 291 284 277 269 268 271 270 269 272 273 273 276 276 268 258 251 254 258 253
72 72 73 74 76 80 81 80 81 82 80 79 73 69 69 65 62 61 57 53 49 45 43 39 40 42 33 15 11 16 21 18 14 15 13 12 16 12 4 10 11 360 351 350 349 339 334 332 326 310 294 295 314 334 341 334 325 330 351 356 348 335 327 328 337 340 328 311 293 278 269 267 269 273 276 276 279 282 279 266 253 245 241 241 244
73 72 71 71 70 72 72 70 69 68 66 64 61 61 59 56 53 49 45 45 42 39 37 32 27 28 31 25 7 3 13 16 11 11 10 10 12 10 17 26 11 345 343 349 354 355 347 347 357 338 315 325 346 346 345 350 346 340 354 353 340 324 320 324 333 337 333 325 312 299 292 286 279 279 283 284 285 289 290 288 279 266 255 251 252
72 71 71 69 68 67 67 66 64 61 58 55 54 52 48 49 53 46 36 33 32 31 28 21 14 8 11 21 16 2 5 13 11 8 7 7 8 12 33 44 7 330 335 345 347 352 353 351 352 339 327 339 352 348 346 352 353 349 357 347 326 312 316 322 324 325 324 322 319 310 305 302 292 287 291 291 289 291 293 296 292 280 283 282 276
69 68 67 65 65 64 61 59 59 56 53 51 48 44 38 36 40 39 34 26 23 27 27 14 7 4 356 359 4 360 4 15 15 10 8 8 8 9 30 53 20 340 336 342 340 342 350 352 349 342 342 346 349 348 347 347 343 335 329 327 320 319 326 326 318 316 316 315 316 315 310 308 303 298 298 296 293 293 293 292 283 267 285 290 284
64 63 63 60 60 61 58 56 52 48 46 44 41 39 31 25 24 27 34 32 17 15 22 9 2 6 355 347 351 354 1 12 12 9 9 9 9 8 1 0 7 356 347 344 338 334 338 343 339 330 331 338 340 342 343 342 341 335 324 316 310 309 321 329 322 316 313 309 311 315 314 313 309 303 301 298 296 295 292 288 274 256 260 268 268
61 59 59 56 52 52 53 53 50 44 39 35 34 32 24 18 17 18 28 31 9 350 1 1 357 2 357 347 346 345 348 356 359 358 358 359 2 5 1 351 349 349 341 335 335 332 333 337 335 325 320 327 333 335 337 336 336 336 331 323 312 298 298 303 307 308 304 301 305 309 310 310 308 305 306 307 307 306 302 294 277 260 254 252 252
59 57 56 53 49 47 46 47 46 39 32 32 33 29 21 13 11 12 16 14 360 353 359 3 3 4 360 352 346 339 335 339 346 348 347 346 351 358 2 359 353 343 334 326 321 326 333 338 340 335 329 330 332 332 332 329 327 329 330 326 320 310 299 292 289 291 291 292 296 300 303 306 307 307 310 312 311 311 306 297 287 279 272 261 247
57 55 52 48 45 42 37 36 38 33 28 30 30 26 23 17 11 12 12 7 4 3 1 359 357 354 350 347 344 339 332 329 336 344 343 341 349 1 6 5 359 349 342 336 330 329 333 335 334 334 331 328 327 326 325 322 319 318 320 321 318 314 308 301 296 291 289 289 291 294 298 303 307 307 306 304 302 300 297 291 287 290 291 284 265
53 50 48 43 41 38 31 27 28 24 20 23 24 18 14 11 9 10 7 1 359 357 355 354 351 347 348 350 351 352 350 345 348 355 351 344 351 3 5 360 353 343 335 332 333 333 330 323 319 320 318 315 313 312 311 312 311 312 314 315 314 311 308 305 302 298 295 293 292 291 289 289 291 295 297 298 298 297 290 280 279 286 287 289 286
48 42 38 36 34 33 31 27 22 15 12 11 9 5 360 358 359 360 355 350 350 353 355 356 355 356 357 358 1 0 356 354 1 8 355 338 330 326 325 323 321 319 317 316 319 321 317 311 308 307 307 305 305 306 307 308 308 310 311 312 312 309 305 301 299 299 298 296 294 292 289 286 283 283 286 290 292 296 294 280 272 278 281 282 284
42 39 35 35 34 29 26 20 9 7 11 6 358 357 355 352 352 351 351 352 354 358 360 357 358 1 356 349 354 359 352 347 357 7 343 322 310 302 304 306 304 304 305 306 308 309 309 309 308 307 305 303 303 304 305 306 307 308 309 309 309 307 304 301 299 298 298 298 297 295 293 291 289 285 284 284 283 289 295 287 272 272 279 280 279
38 39 29 23 28 26 18 11 5 7 11 7 2 360 357 355 354 354 356 359 357 353 353 351 349 348 346 346 355 7 356 343 347 351 334 321 316 311 308 307 304 302 301 302 304 305 305 304 303 302 301 301 301 301 300 300 301 301 302 304 304 303 304 306 303 299 302 304 302 299 296 295 293 290 288 287 283 282 285 284 280 280 281 280 277
38 36 23 7 7 15 15 16 15 9 3 6 7 3 2 2 359 353 350 349 348 348 348 347 343 342 345 345 345 348 339 327 324 324 320 317 317 316 315 314 313 311 310 309 308 307 306 305 304 302 301 302 303 304 305 304 304 303 302 302 302 303 309 312 306 300 302 302 298 296 294 291 289 287 285 286 287 287 285 282 282 282 277 272 272
36 31 25 2 352 359 7 14 13 3 358 6 5 358 2 5 355 348 349 344 342 345 345 345 347 348 347 341 331 327 325 320 319 320 319 319 320 320 321 321 319 318 317 315 314 315 315 314 311 310 311 313 314 317 319 320 321 320 318 314 312 311 312 309 303 300 301 300 295 288 283 283 287 290 291 291 292 296 298 297 291 286 281 274 270
24 2 353 346 348 1 11 11 9 6 4 7 4 357 0 358 346 351 3 358 351 353 353 353 355 354 348 342 341 341 339 335 333 333 331 329 329 329 330 330 329 328 326 324 324 326 326 327 330 332 333 334 335 335 335 335 334 333 332 329 326 323 318 311 306 305 306 307 304 295 290 291 296 298 298 297 296 296 300 305 303 299 297 290 274
13 347 348 356 5 19 23 15 15 17 10 9 13 6 359 350 341 353 6 7 2 3 4 2 1 357 354 356 2 7 7 3 359 354 349 347 348 348 350 351 349 348 347 344 341 343 348 353 354 352 350 348 347 346 346 345 343 340 341 342 344 344 339 329 321 314 313 318 318 310 305 305 303 302 301 302 301 297 296 301 306 304 302 293 273
2 356 7 20 26 29 25 18 20 21 15 18 25 17 4 357 1 5 11 13 12 12 11 7 4 4 10 17 24 29 28 22 17 12 9 8 10 10 12 13 11 10 10 4 356 358 7 7 1 357 358 359 359 360 359 356 352 348 345 345 348 353 352 345 339 338 341 344 338 330 328 326 323 321 319 316 315 310 302 299 299 298 298 296 283
11 19 32 36 32 27 22 18 21 26 25 28 34 33 18 6 12 21 21 12 12 18 17 12 14 23 32 37 39 36 31 25 22 24 26 27 27 26 26 26 25 24 23 21 19 20 22 20 15 13 14 15 17 19 17 14 10 7 4 360 358 2 6 7 3 0 0 359 353 345 343 340 336 334 330 324 327 332 325 304 287 284 303 320 318
20 37 47 39 27 22 24 25 29 34 35 33 38 43 30 9 12 28 24 12 15 24 20 17 27 43 44 42 41 34 24 19 20 27 33 37 36 31 26 25 28 31 32 34 34 34 33 32 30 27 26 26 25 23 21 19 17 16 14 11 7 7 11 15 14 9 9 9 1 350 345 341 337 333 330 325 324 329 335 331 316 318 341 340 329
22 38 51 42 28 26 31 34 36 38 39 37 37 41 41 28 17 14 9 3 11 21 16 13 23 42 45 41 38 34 25 19 18 22 29 33 34 30 27 27 32 36 38 38 37 36 34 33 31 29 27 27 25 21 19 18 17 17 17 14 9 6 4 1 356 352 354 355 350 344 342 339 333 329 331 333 331 328 327 326 326 330 342 345 339
29 37 47 44 36 34 36 37 37 37 37 36 33 34 41 41 28 18 13 7 8 16 14 7 12 32 46 42 37 36 28 20 19 25 31 35 36 34 32 31 33 35 38 38 36 34 32 30 29 27 26 26 25 22 19 15 12 15 19 16 12 11 10 6 1 356 353 352 351 350 348 343 335 328 328 333 340 345 342 333 322 313 308 310 317
41 43 46 43 38 37 37 36 35 35 34 34 35 35 37 37 33 30 30 22 12 15 15 6 8 23 40 41 38 39 30 20 20 26 29 30 33 34 33 32 31 30 31 33 33 31 29 27 24 20 17 18 19 19 18 14 11 11 14 14 11 9 10 10 9 7 6 5 3 1 358 353 346 337 331 330 336 347 347 340 333 326 318 316 317
34 42 54 51 40 36 37 36 37 39 38 37 38 38 35 35 36 34 32 29 21 18 15 3 1 13 34 45 41 40 34 24 20 24 25 26 30 32 32 32 31 27 26 27 27 25 25 23 19 13 10 9 10 12 14 13 12 10 11 12 9 4 4 5 4 4 5 6 5 4 3 2 360 354 348 344 342 340 336 332 332 330 323 320 323
20 31 54 60 46 34 34 35 36 39 39 37 40 42 38 37 38 34 30 29 25 22 15 356 353 6 29 46 42 37 33 25 20 23 26 27 29 30 29 28 29 28 26 25 24 22 21 20 18 15 11 8 9 12 12 11 13 12 10 10 8 2 0 1 359 357 356 356 356 358 358 359 0 359 356 353 351 348 344 341 340 340 335 329 329
9 17 42 58 49 33 33 36 35 37 40 40 41 43 40 36 36 34 32 30 27 26 20 360 353 5 21 36 39 36 29 22 20 23 25 25 27 28 27 26 26 26 25 23 23 22 20 18 17 15 14 13 14 14 12 11 13 13 10 10 10 6 2 360 358 356 353 350 348 347 347 347 349 350 349 349 350 348 345 341 340 340 339 338 337
5 5 22 44 47 34 31 37 39 40 42 43 42 39 37 36 35 32 30 28 25 24 23 9 358 4 13 24 36 35 27 21 20 21 21 23 24 24 24 23 22 21 20 19 20 20 18 16 13 10 10 12 12 10 9 8 8 8 6 4 5 4 1 358 356 355 353 350 346 342 339 338 337 338 338 341 343 342 337 334 332 331 330 329 329
16 6 12 28 38 35 32 36 41 41 40 40 41 38 34 34 33 29 28 29 25 23 26 20 3 359 3 15 34 36 26 21 20 19 18 20 20 20 20 21 20 18 15 14 14 16 16 14 11 7 8 8 6 6 4 1 0 1 356 350 353 356 355 351 349 348 346 345 343 341 339 336 333 330 328 328 329 329 327 327 328 327 323 320 317
24 15 11 20 30 34 32 31 34 38 38 38 39 38 35 34 31 26 26 28 25 21 23 23 11 356 354 6 31 39 27 18 17 18 17 17 16 15 14 14 17 19 14 9 8 9 11 11 6 5 6 4 360 1 3 358 355 352 342 338 346 353 351 347 345 341 338 336 335 334 334 333 331 329 326 322 320 318 315 315 317 317 317 316 316
17 15 11 16 22 26 29 29 29 32 35 35 35 36 34 31 29 28 25 23 24 22 16 17 17 3 352 358 17 31 26 16 13 14 15 13 13 12 6 4 13 22 16 6 1 2 6 8 3 0 3 1 355 357 2 359 350 339 332 336 347 352 350 348 346 342 337 335 333 330 327 325 323 323 322 320 318 315 311 307 303 302 303 305 308
9 9 7 8 14 18 21 25 24 22 23 26 29 30 29 25 23 25 22 17 17 19 13 8 11 7 359 360 7 16 20 16 11 10 10 7 8 9 1 357 6 18 15 5 359 358 1 5 1 357 360 360 354 354 1 358 344 331 330 338 346 348 346 345 345 343 341 338 335 332 329 324 320 317 315 314 313 312 310 308 303 300 299 297 295
354 356 359 359 6 13 12 12 17 14 11 15 20 20 21 20 16 16 16 14 13 13 10 5 3 3 2 2 3 7 13 14 8 5 5 2 2 2 356 354 2 12 12 6 359 355 357 3 1 356 358 358 353 355 3 358 337 325 329 337 341 342 342 342 342 341 340 339 336 333 331 327 324 320 316 312 310 307 306 306 303 301 300 298 293
343 337 346 347 346 356 360 358 3 5 5 11 15 9 8 11 10 6 6 6 6 6 4 1 360 360 359 359 360 2 5 6 4 1 0 358 355 351 350 354 3 11 12 8 2 358 360 3 360 357 358 355 351 356 5 355 330 323 329 336 337 336 337 338 337 337 337 337 336 334 331 329 328 325 321 317 313 309 306 305 303 302 301 300 297
342 329 335 336 329 336 346 342 340 347 351 354 358 358 357 359 359 359 357 356 357 0 359 355 355 357 355 353 355 357 357 358 358 357 355 354 350 344 346 355 6 12 13 12 10 6 5 3 359 359 360 355 351 355 358 344 328 327 332 333 332 332 333 333 333 334 336 336 335 333 332 330 328 326 325 322 318 314 310 305 304 305 305 304 303
337 321 322 324 318 321 327 326 329 335 330 327 340 346 344 343 345 347 349 349 350 351 352 350 350 352 351 348 350 351 349 349 351 350 350 350 346 339 343 355 6 10 11 13 13 10 5 0 359 360 358 354 353 351 343 332 330 332 333 331 331 332 334 335 334 334 334 334 334 333 332 330 329 328 327 324 321 318 314 310 308 310 309 307 305
326 313 316 318 313 313 312 308 316 322 313 309 324 328 329 338 340 334 337 345 345 342 344 345 344 344 345 344 344 344 341 340 342 345 347 345 339 337 346 359 8 9 10 14 14 9 2 359 0 360 355 354 354 345 333 331 335 336 334 334 335 336 337 337 336 334 333 332 333 332 331 330 329 328 327 326 324 321 317 314 312 310 306 304 303
314 305 309 308 303 308 307 299 304 312 303 300 314 318 318 327 328 321 327 339 340 335 336 338 338 339 339 336 337 338 334 333 337 342 343 339 337 343 355 2 5 6 9 12 10 5 360 359 360 357 353 355 355 340 330 334 339 339 337 337 338 339 339 337 336 334 333 332 332 332 330 329 328 327 328 327 325 319 314 309 304 300 298 300 304
306 303 307 301 293 298 301 293 293 300 297 295 302 306 306 314 318 317 319 326 329 332 331 328 329 334 333 329 331 332 327 328 337 343 340 337 343 353 358 358 360 4 8 8 4 0 358 358 359 355 353 354 352 338 331 336 340 338 337 339 340 340 339 337 336 336 335 333 332 331 328 325 325 325 325 324 322 320 318 314 309 304 302 302 303
301 296 300 297 289 291 296 293 290 295 295 293 295 298 299 301 303 307 313 316 318 324 324 321 322 327 325 322 325 324 320 325 337 343 341 343 351 355 352 351 355 1 2 360 357 356 356 357 357 355 352 352 349 337 331 336 338 335 335 338 340 340 339 338 336 336 335 332 330 328 325 324 323 321 320 320 320 320 317 313 310 310 311 311 310